[[{"header":{"parameterUnit":"m.s-1","parameterCategory":1,"la1":30.2991,"la2":30.254,"lo1":-89.0895,"lo2":-89.0444,"dy":0.0017,"dx":0.0017,"nx":28,"ny":28,"refTime":"2026-01-01T09:00:00:Z","depth":0,"parameterNumber":2,"parameterNumberName":"U-component_of_WINDS"},"data":[0,0,0,0,0,0,0,0,0,0,0,0,0,0,0,0,0,0,0,0,0,0,0,0,0,0,0,0,0,0,0,0,0,0,0,0,0,0,0,0,0,0,0,0,0,0,0,0,0,0,0,0,0,0,0,0,0,0,4.8245,4.8247,0,4.8469,4.8472,4.8474,4.8454,4.8451,4.8448,4.8444,4.8677,4.8686,4.8695,0,0,0,0,0,0,0,0,0,0,0,0,0,4.78,4.7808,4.8244,4.8247,4.825,4.8469,4.8472,4.8475,4.8455,4.8451,4.8447,4.8443,4.8674,4.8685,4.8696,0,0,0,0,0,0,0,0,0,0,0,0,0,4.8006,4.7811,4.8244,4.8266,4.8271,4.8468,4.8472,4.8476,4.8456,4.8451,4.8446,4.8441,4.867,4.8684,4.8697,4.8888,0,0,4.8741,4.8747,0,0,0,0,0,0,0,0,4.7994,4.8022,4.826,4.8265,4.827,4.8428,4.84,4.8614,4.8457,4.8386,4.8444,4.8438,4.8598,4.8618,4.8672,4.8899,4.8909,4.8742,4.875,4.8756,4.876,0,0,0,0,0,0,0,4.798,4.8012,4.8333,4.8264,4.827,4.8266,4.8289,4.8441,4.8518,4.8391,4.8391,4.8417,4.86,4.8658,4.8677,4.8912,4.8741,4.8754,4.8763,4.8768,4.9304,4.931,0,0,0,0,0,0,4.796,4.8,4.8326,4.834,4.8117,4.8278,4.8304,4.8383,4.8517,4.8532,4.8421,4.8416,4.8636,4.866,4.8685,4.8914,4.8756,4.8769,4.8778,4.9299,4.9306,4.9312,0,0,0,0,0,0,4.795,4.7989,4.8317,4.817,4.8212,4.8291,4.838,4.839,4.8448,4.8539,4.8553,4.8466,4.8633,4.8665,4.8837,4.8922,4.8776,4.8789,4.9292,4.9301,4.9309,4.9375,0,0,0,0,0,0,4.7938,4.7986,4.8059,4.8172,4.8219,4.8465,4.8385,4.8398,4.8472,4.8466,4.8585,4.86,4.8632,4.8816,4.8851,4.8939,4.88,4.9284,4.9296,4.9306,4.9366,4.9385,4.9402,0,0,0,0,0,4.7922,4.8069,4.8062,4.8102,4.8312,4.847,4.8497,4.853,4.8479,4.8552,4.8611,4.8596,4.8908,4.8834,4.8873,4.8966,4.9279,4.9293,4.9305,4.9358,4.9381,4.9401,0,0,0,0,0,0,4.7965,4.8085,4.8078,4.8266,4.8358,4.8466,4.856,4.8555,4.8663,4.8653,4.8691,4.8718,4.889,4.8946,4.8861,4.9156,4.9087,4.9108,4.9113,4.9136,4.9154,4.9136,4.8811,0,0,0,0,0,4.7996,4.8114,4.8213,4.8369,4.8415,4.848,4.855,4.8568,4.8664,4.8703,4.8774,4.8869,4.8988,4.9066,4.9181,4.9375,4.9399,4.9459,4.9476,4.9491,4.9508,4.9612,4.9639,4.9355,4.9355,4.9354,0,0,4.8062,4.8142,4.8214,4.838,4.8453,4.8573,4.8513,4.8644,4.8733,4.8723,4.8888,4.8945,4.9053,4.9236,4.932,4.9287,4.9592,4.9507,4.9518,4.9528,4.9629,4.9655,4.9679,4.9363,4.9362,4.936,0,0,4.8243,4.8316,4.8453,4.8528,4.8639,4.8681,4.8714,4.8823,4.8859,4.9026,4.902,4.9128,4.9334,4.941,4.9476,4.9686,4.9675,4.9723,4.9816,4.9917,4.9939,4.9959,5.0032,5.0057,4.974,4.9741,4.9741,0,4.831,4.8492,4.8525,4.8657,4.8729,4.8725,4.8864,4.8935,4.9078,4.9128,4.909,4.9346,4.9419,4.9618,4.9669,4.9724,4.9762,4.9708,4.9933,4.9954,4.9973,5.0042,5.007,4.9745,4.9745,4.9744,4.9744,0,4.8568,4.8694,4.8792,4.8929,4.9013,4.9148,4.9201,4.9282,4.9293,4.9339,4.9508,4.9596,4.9727,4.9777,4.979,4.9978,4.9954,4.9925,4.9855,5.0004,5.007,5.0097,4.9752,4.975,4.9749,4.9748,0,0,4.878,4.8934,4.8969,4.903,4.9152,4.925,4.9385,4.9513,4.958,4.968,4.9793,4.9967,4.9939,5.0014,5.0036,5.0125,5.0283,5.0084,5.0087,5.0115,5.0493,5.0512,5.0542,5.0277,5.0283,5.0287,5.0483,0,4.8971,4.9208,4.9242,4.9451,4.9567,4.9565,4.9682,4.977,4.9817,4.9923,4.9975,5.0096,5.0053,5.0097,5.0186,5.0244,5.0358,5.0231,5.0381,5.0386,5.0351,5.0577,5.0598,5.0779,5.0509,5.0514,5.0517,0,4.9225,4.9329,4.9549,4.9654,4.9704,4.9809,4.9928,5.0029,5.0129,5.0157,5.024,5.025,5.039,5.0316,5.0508,5.042,5.0484,5.0523,5.053,5.0543,5.0458,5.0593,5.0838,5.0863,5.0558,5.0555,5.0552,0,4.9353,4.955,4.9706,4.9759,4.9887,4.996,5.0016,5.0111,5.0185,5.029,5.0338,5.0458,5.0524,5.0617,5.0659,5.0602,5.0847,5.0778,5.0873,5.0872,5.0922,5.0918,5.1177,5.0969,5.0969,5.0968,5.0967,0,4.956,4.9694,4.9765,4.9861,5.0011,5.005,5.0198,5.0252,5.0336,5.0442,5.045,5.055,5.0602,5.0709,5.0744,5.0896,5.0927,5.0952,5.0959,5.095,5.0946,5.0989,5.0977,5.0975,5.0974,5.0972,5.0971,0,4.9728,4.9781,4.9951,5.0058,5.0088,5.0193,5.0284,5.0378,5.0424,5.0559,5.0593,5.0666,5.0793,5.0846,5.1002,5.1025,5.1199,5.1198,5.1165,5.1166,5.1257,5.1247,5.1551,5.1592,5.136,5.1362,5.1364,0,4.9855,4.9958,5.0075,5.0146,5.0205,5.032,5.0395,5.0438,5.0516,5.0637,5.0716,5.0842,5.0946,5.1149,5.1216,5.1336,5.1336,5.1435,5.1354,5.134,5.1334,5.1325,5.1335,5.1448,5.145,5.1452,5.1454,0,5.0073,5.0095,5.0202,5.032,5.0409,5.0504,5.0597,5.0655,5.0712,5.0799,5.0929,5.1009,5.1168,5.1293,5.1416,5.1475,5.1474,5.1479,5.1507,5.1497,5.1471,5.1483,5.1201,5.1471,5.1469,5.1468,5.1467,5.1467,5.0223,5.0313,5.0409,5.0529,5.0603,5.0689,5.0781,5.0839,5.0947,5.1079,5.1098,5.1236,5.1333,5.1498,5.1562,5.167,5.1645,5.1686,5.1696,5.1705,5.1709,5.1457,5.1694,5.1693,5.1693,5.1692,5.1692,0,5.0439,5.0501,5.0611,5.0739,5.0833,5.0824,5.0926,5.1005,5.1126,5.1216,5.1317,5.1466,5.1587,5.1664,5.1787,5.1859,5.1861,5.1889,5.1883,5.1896,5.1726,5.1688,5.1885,5.1885,5.1885,5.1885,5.1885,5.1885,5.0562,5.0714,5.0746,5.0935,5.0996,5.113,5.1189,5.1268,5.134,5.1504,5.1605,5.1655,5.174,5.1868,5.1979,5.1999,5.2042,5.2071,5.2089,5.1928,5.1908,5.1889,5.1853,5.2081,5.2082,5.2249,5.225,5.2252]},{"header":{"parameterUnit":"m.s-1","parameterCategory":1,"la1":30.2991,"la2":30.254,"lo1":-89.0895,"lo2":-89.0444,"dy":0.0017,"dx":0.0017,"nx":28,"ny":28,"refTime":"2026-01-01T09:00:00:Z","depth":0,"parameterNumber":3,"parameterNumberName":"V-component_of_WINDS"},"data":[0,0,0,0,0,0,0,0,0,0,0,0,0,0,0,0,0,0,0,0,0,0,0,0,0,0,0,0,0,0,0,0,0,0,0,0,0,0,0,0,0,0,0,0,0,0,0,0,0,0,0,0,0,0,0,0,0,0,3.4711,3.4713,0,3.4876,3.4877,3.4879,3.4902,3.4901,3.4899,3.4898,3.5063,3.5069,3.5075,0,0,0,0,0,0,0,0,0,0,0,0,0,3.4412,3.4417,3.4711,3.4713,3.4715,3.4875,3.4878,3.488,3.4902,3.4901,3.4899,3.4897,3.5062,3.5068,3.5075,0,0,0,0,0,0,0,0,0,0,0,0,0,3.4555,3.4419,3.471,3.4745,3.475,3.4875,3.4878,3.488,3.4903,3.4901,3.4898,3.4896,3.5059,3.5068,3.5076,3.5176,0,0,3.5103,3.5107,0,0,0,0,0,0,0,0,3.4547,3.4566,3.4738,3.4743,3.4749,3.4866,3.4833,3.4979,3.4903,3.4845,3.4898,3.4895,3.4999,3.5013,3.5049,3.5184,3.5191,3.5104,3.5109,3.5113,3.5115,0,0,0,0,0,0,0,3.4537,3.4559,3.4776,3.4741,3.4747,3.4752,3.477,3.4861,3.4933,3.485,3.4852,3.4871,3.5002,3.504,3.5053,3.5194,3.5104,3.5111,3.5117,3.512,3.5417,3.5419,0,0,0,0,0,0,3.4521,3.4551,3.4771,3.4781,3.464,3.4759,3.4779,3.4831,3.4932,3.4945,3.4873,3.4872,3.5026,3.5043,3.5059,3.5181,3.5113,3.5121,3.5126,3.5414,3.5418,3.542,0,0,0,0,0,0,3.4515,3.4541,3.4764,3.4666,3.4695,3.4767,3.4824,3.4835,3.4874,3.495,3.4962,3.4899,3.5025,3.5046,3.5147,3.5187,3.5125,3.5133,3.5411,3.5415,3.5419,3.5428,0,0,0,0,0,0,3.4506,3.4538,3.4578,3.4667,3.47,3.485,3.4827,3.484,3.4889,3.4889,3.4978,3.499,3.5025,3.5133,3.5155,3.5198,3.514,3.5408,3.5413,3.5418,3.5424,3.5432,3.5438,0,0,0,0,0,3.4495,3.4574,3.458,3.4606,3.4752,3.4853,3.4872,3.4911,3.4892,3.4932,3.498,3.4987,3.5179,3.5144,3.5168,3.5215,3.5406,3.5412,3.5417,3.5421,3.543,3.5438,0,0,0,0,0,0,3.4487,3.4586,3.4594,3.4704,3.477,3.4856,3.4908,3.492,3.4992,3.4988,3.5034,3.5053,3.5151,3.5193,3.5151,3.5316,3.5291,3.5302,3.5285,3.5294,3.5301,3.5288,3.5147,0,0,0,0,0,3.4498,3.4572,3.4655,3.4743,3.4776,3.4836,3.4882,3.4907,3.4976,3.5004,3.506,3.5126,3.5201,3.525,3.5324,3.543,3.5449,3.5474,3.5481,3.5486,3.5495,3.5553,3.5564,3.544,3.544,3.544,0,0,3.4521,3.4584,3.4629,3.4743,3.4797,3.4872,3.486,3.494,3.4996,3.5016,3.5114,3.5157,3.5234,3.5337,3.5386,3.5375,3.5533,3.5494,3.5497,3.5503,3.556,3.5572,3.5582,3.5444,3.5443,3.5442,0,0,3.4601,3.4658,3.4737,3.4791,3.4873,3.4913,3.4932,3.5017,3.5046,3.5146,3.5162,3.5228,3.5357,3.5411,3.5455,3.5554,3.5562,3.5576,3.5612,3.5668,3.5678,3.5686,3.5721,3.5732,3.5585,3.5585,3.5585,0,3.462,3.4735,3.4776,3.4856,3.4905,3.4927,3.5007,3.5058,3.5159,3.5192,3.5179,3.534,3.5394,3.5509,3.5533,3.5568,3.559,3.5567,3.5673,3.5682,3.5691,3.5724,3.5737,3.5586,3.5586,3.5586,3.5586,0,3.4752,3.4832,3.4886,3.4984,3.5039,3.5118,3.517,3.5221,3.5241,3.5281,3.538,3.5445,3.5531,3.556,3.558,3.5678,3.5669,3.5664,3.564,3.5704,3.5735,3.5748,3.5588,3.5588,3.5587,3.5587,0,0,3.4833,3.4952,3.4971,3.5015,3.5107,3.5168,3.5248,3.5333,3.5375,3.5443,3.551,3.5618,3.5613,3.5663,3.5689,3.5738,3.5811,3.5727,3.5729,3.5739,3.5921,3.5924,3.5938,3.5817,3.5819,3.5821,3.5914,0,3.4923,3.5067,3.5106,3.5227,3.53,3.5321,3.539,3.5453,3.5492,3.5558,3.5601,3.5676,3.5665,3.5695,3.5745,3.5791,3.5848,3.5785,3.5878,3.588,3.5857,3.5955,3.5958,3.6043,3.5927,3.5929,3.5931,0,3.5049,3.512,3.5249,3.533,3.5362,3.5423,3.5503,3.5567,3.5638,3.5662,3.5718,3.5738,3.582,3.5791,3.5904,3.586,3.59,3.5928,3.5933,3.5942,3.5909,3.5966,3.6071,3.6083,3.5951,3.5949,3.5948,0,3.5093,3.5222,3.5315,3.5352,3.5449,3.5491,3.5533,3.5602,3.565,3.572,3.5751,3.5829,3.5871,3.593,3.597,3.5946,3.6079,3.6054,3.61,3.6099,3.6127,3.6125,3.6239,3.6154,3.6154,3.6153,3.6153,0,3.519,3.5267,3.5336,3.5393,3.548,3.5523,3.5607,3.565,3.571,3.5775,3.5798,3.5857,3.5908,3.5974,3.6006,3.6093,3.6112,3.6133,3.614,3.6131,3.6128,3.6157,3.6152,3.6157,3.6156,3.6155,3.6155,0,3.5254,3.5304,3.5406,3.5489,3.5512,3.5572,3.5642,3.5698,3.5737,3.5818,3.584,3.5901,3.598,3.6026,3.6126,3.6147,3.6243,3.6249,3.622,3.6223,3.6266,3.6261,3.6403,3.6423,3.6325,3.6326,3.6327,0,3.5312,3.5373,3.5462,3.5507,3.555,3.5623,3.5672,3.5716,3.5766,3.585,3.5895,3.5976,3.6042,3.6167,3.6219,3.6295,3.6301,3.6346,3.6313,3.6301,3.6301,3.6296,3.6302,3.6351,3.6352,3.6353,3.6353,0,3.541,3.5431,3.5502,3.5581,3.5639,3.5703,3.5767,3.5802,3.5857,3.5911,3.5993,3.6045,3.6146,3.6225,3.6304,3.6346,3.6358,3.6363,3.6378,3.6368,3.6349,3.6359,3.6234,3.636,3.6359,3.6359,3.6358,3.6358,3.5473,3.5527,3.5598,3.5675,3.5728,3.5786,3.5842,3.5888,3.5957,3.6044,3.6065,3.615,3.6217,3.6326,3.6369,3.6435,3.6427,3.6449,3.6454,3.6458,3.6459,3.6338,3.645,3.645,3.6449,3.6449,3.6449,0,3.5571,3.5617,3.5688,3.5777,3.5837,3.5844,3.5915,3.5964,3.6039,3.6101,3.6167,3.6259,3.6335,3.6393,3.6471,3.6512,3.6519,3.6531,3.6528,3.6537,3.6462,3.6441,3.6523,3.6523,3.6523,3.6523,3.6523,3.6523,3.5629,3.572,3.5749,3.5866,3.5912,3.5996,3.6035,3.6088,3.6138,3.6241,3.6304,3.6342,3.6402,3.6484,3.6554,3.6568,3.6595,3.6606,3.6621,3.655,3.6542,3.6535,3.6515,3.6611,3.6612,3.669,3.6691,3.6692]}]]